Location: Oshawa
(43.9000°N, 78.8670°W)
Time: 17:24:09
(UTC-04:00)

SPOT 5 - Visible Passes

Search period start: 17 April 2014 00:00
Search period end: 27 April 2014 00:00
Orbit: 824 x 826 km, 98.6° (Epoch: 17 April)

Date Brightness Start Highest point End Pass type
(mag) Time Alt. Az. Time Alt. Az. Time Alt. Az.
17 Apr 5.0 20:47:49 10° E 20:50:32 14° ENE 20:53:14 10° NNE visible
17 Apr 3.0 22:28:41 55° SSE 22:29:57 90° ENE 22:35:21 10° NNW visible
18 Apr 5.6 00:10:08 12° W 00:10:52 12° W 00:12:51 10° WNW visible
18 Apr 3.2 22:09:01 42° SE 22:10:39 62° ENE 22:15:57 10° N visible
18 Apr 5.1 23:50:28 18° WSW 23:51:16 18° W 23:54:54 10° NW visible
19 Apr 3.7 21:49:21 30° ESE 21:51:24 43° ENE 21:56:27 10° N visible
19 Apr 4.6 23:30:48 25° WSW 23:31:44 27° W 23:36:14 10° NW visible
20 Apr 4.1 21:29:41 21° ESE 21:32:12 30° ENE 21:36:49 10° N visible
20 Apr 4.1 23:11:08 35° SW 23:12:15 39° W 23:17:17 10° NNW visible
21 Apr 4.6 21:10:01 14° ESE 21:13:04 21° ENE 21:17:02 10° NNE visible
21 Apr 3.5 22:51:28 45° SSW 22:52:50 58° W 22:58:08 10° NNW visible
22 Apr 5.0 20:51:01 10° E 20:53:59 15° ENE 20:56:58 10° NNE visible
22 Apr 3.1 22:31:48 46° S 22:33:28 85° WSW 22:38:52 10° NNW visible
23 Apr 5.6 00:13:15 10° W 00:14:26 11° W 00:15:47 10° WNW visible
23 Apr 5.2 20:34:01 10° ENE 20:34:58 10° NE 20:35:55 10° NE visible
23 Apr 3.1 22:12:08 38° SE 22:14:09 67° ENE 22:19:29 10° N visible
23 Apr 5.2 23:53:35 16° WSW 23:54:50 17° W 23:58:14 10° NW visible
24 Apr 3.6 21:52:28 28° SE 21:54:54 46° ENE 22:00:00 10° N visible
24 Apr 4.8 23:33:56 22° WSW 23:35:17 25° W 23:39:39 10° NW visible
25 Apr 4.1 21:32:49 20° ESE 21:35:41 32° ENE 21:40:24 10° N visible
25 Apr 4.3 23:14:16 30° SW 23:15:48 36° W 23:20:44 10° NNW visible
26 Apr 4.5 21:13:09 13° ESE 21:16:33 23° ENE 21:20:39 10° NNE visible
26 Apr 3.6 22:54:36 38° SSW 22:56:22 53° W 23:01:38 10° NNW visible
